Location: Vancouver
(49.2500°N, 123.1330°W)
Time: 17:05:20
(UTC-07:00)

Iridium 21 - Visible Passes

Search period start: 27 May 2016 00:00
Search period end: 06 June 2016 00:00
Orbit: 776 x 779 km, 86.4° (Epoch: 27 May)

Date Brightness Start Highest point End Pass type
(mag) Time Alt. Az. Time Alt. Az. Time Alt. Az.
27 May 6.0 22:27:23 10° N 22:32:32 60° W 22:37:39 10° SSW visible
28 May 5.5 21:53:47 10° N 21:59:03 81° E 22:04:15 10° S visible
28 May 8.0 23:36:03 10° NW 23:39:03 16° WNW 23:42:04 10° WSW visible
29 May 7.5 23:01:37 10° NNW 23:05:53 26° W 23:10:07 10° SW visible
30 May 6.7 22:27:38 10° NNW 22:32:34 43° W 22:37:28 10° SSW visible
31 May 5.8 21:53:55 10° N 21:59:09 74° W 22:04:21 10° S visible
31 May 8.3 23:37:25 10° NW 23:38:54 11° WNW 23:40:23 10° W visible
01 Jun 8.0 23:02:11 10° NNW 23:05:48 19° WNW 23:09:23 10° WSW visible
02 Jun 7.2 22:27:58 10° NNW 22:32:34 32° W 22:37:07 10° SW visible
03 Jun 6.4 21:54:07 10° NNW 21:59:13 53° W 22:04:17 10° SSW visible
04 Jun 8.2 23:03:03 10° NW 23:05:40 14° WNW 23:08:16 10° WSW visible
05 Jun 7.8 22:28:26 10° NNW 22:32:31 23° W 22:36:34 10° SW visible
